Location: Ellerstadt
(49.4644°N, 8.2615°E)
Time: 22:16:54
(UTC+00:00)

FALCON 9 DEB - Pass Details

Date: 03 March 2021
Orbit: 371 x 390 km, 53.0° (Epoch: 12 April)

Event Time Altitude Azimuth Distance (km) Brightness Sun altitude
Rises 18:27:30 0° 281° (W) 2,298 8.8 -12.9°
Reaches altitude 10° 18:29:38 10° 289° (WNW) 1,441 7.1 -13.2°
Maximum altitude 18:32:44 42° 1° (N) 583 3.8 -13.7°
Enters shadow 18:34:18 23° 60° (ENE) 887 4.2 -14.0°
